GW1401 Weather Reports


Display with metric or nautical units.
time (UTC)temp
F
wind
direction
speed
MPH
gust
MPH
rain 1hr
in
rain 24hr
in
rain mn
in
humidity
%
barometer
mb
20260510194343 74 301 3.0 6.0 0.00 0.00 0.00 45 1019.8
20260510193838 76 337 3.0 6.0 0.00 0.00 0.00 43 1020.1
20260510193333 77 166 1.0 3.0 0.00 0.00 0.00 46 1019.9
20260510192824 76 117 3.0 6.0 0.00 0.00 0.00 44 1019.9
20260510192319 77 349 2.0 8.0 0.00 0.00 0.00 43 1020.0
20260510191816 77 107 2.0 2.0 0.00 0.00 0.00 43 1019.8
20260510191312 76 298 3.0 3.0 0.00 0.00 0.00 47 1020.0
20260510190810 76 210 3.0 5.0 0.00 0.00 0.00 48 1020.0
20260510190307 76 238 2.0 5.0 0.00 0.00 0.00 49 1019.9
20260510185803 76 297 2.0 6.0 0.00 0.00 0.00 47 1020.1
20260510185301 77 218 2.0 2.0 0.00 0.00 0.00 50 1020.0
20260510184758 76 276 3.0 3.0 0.00 0.00 0.00 49 1020.0
20260510184255 76 125 0.0 2.0 0.00 0.00 0.00 49 1019.8
20260510183749 77 142 2.0 3.0 0.00 0.00 0.00 50 1019.9
20260510183244 76 334 4.0 6.0 0.00 0.00 0.00 48 1020.0
20260510182741 77 150 2.0 3.0 0.00 0.00 0.00 46 1019.7
20260510182236 78 64 1.0 2.0 0.00 0.00 0.00 51 1020.0
20260510181734 76 114 2.0 5.0 0.00 0.00 0.00 50 1019.6
20260510181231 75 144 1.0 3.0 0.00 0.00 0.00 52 1019.9
20260510180727 76 112 3.0 6.0 0.00 0.00 0.00 56 1019.9
20260510180224 75 277 5.0 10.0 0.00 0.00 0.00 52 1020.0
20260510175721 76 89 2.0 2.0 0.00 0.00 0.00 55 1020.0
20260510175216 77 78 0.0 3.0 0.00 0.00 0.00 55 1019.9
20260510174714 76 127 4.0 5.0 0.00 0.00 0.00 54 1020.0
20260510174211 76 60 1.0 5.0 0.00 0.00 0.00 57 1020.2
20260510173707 76 110 3.0 6.0 0.00 0.00 0.00 54 1019.9
20260510173203 76 153 2.0 7.0 0.00 0.00 0.00 55 1020.1
20260510172658 77 75 6.0 10.0 0.00 0.00 0.00 53 1020.1
20260510172155 76 93 1.0 3.0 0.00 0.00 0.00 57 1020.0
20260510171652 77 332 3.0 3.0 0.00 0.00 0.00 52 1020.0
20260510171149 76 326 5.0 6.0 0.00 0.00 0.00 53 1020.1
20260510170645 77 234 5.0 7.0 0.00 0.00 0.00 54 1020.0
20260510170142 75 77 2.0 2.0 0.00 0.00 0.00 58 1019.9
20260510165638 74 201 2.0 6.0 0.00 0.00 0.00 61 1019.9
20260510165134 74 254 3.0 5.0 0.00 0.00 0.00 58 1020.0
20260510164632 74 141 1.0 3.0 0.00 0.00 0.00 59 1019.7
20260510164128 76 56 1.0 2.0 0.00 0.00 0.00 60 1019.9
20260510163623 75 144 1.0 3.0 0.00 0.00 0.00 62 1019.6
20260510163120 75 287 3.0 7.0 0.00 0.00 0.00 60 1019.7
20260510162614 76 126 2.0 3.0 0.00 0.00 0.00 59 1019.5
20260510162111 76 123 1.0 2.0 0.00 0.00 0.00 56 1019.8
20260510161607 76 6 2.0 3.0 0.00 0.00 0.00 59 1019.6
20260510161104 75 84 1.0 2.0 0.00 0.00 0.00 60 1019.5
20260510160601 75 107 0.0 2.0 0.00 0.00 0.00 60 1019.4
20260510160100 77 132 1.0 2.0 0.00 0.00 0.00 58 1019.4
20260510155558 76 136 1.0 2.0 0.00 0.00 0.00 55 1019.1
20260510155054 76 100 1.0 2.0 0.00 0.00 0.00 57 1019.3
20260510154549 76 330 3.0 5.0 0.00 0.00 0.00 55 1019.2
20260510154045 76 115 1.0 1.0 0.00 0.00 0.00 57 1019.1
20260510153540 75 140 0.0 1.0 0.00 0.00 0.00 56 1019.1
20260510153037 75 202 1.0 2.0 0.00 0.00 0.00 57 1019.0
20260510152534 75 333 1.0 3.0 0.00 0.00 0.00 54 1019.0
20260510152030 75 137 0.0 2.0 0.00 0.00 0.00 57 1018.8
20260510151527 75 91 1.0 2.0 0.00 0.00 0.00 57 1018.9
20260510151025 76 63 1.0 2.0 0.00 0.00 0.00 58 1019.0
20260510150519 74 125 0.0 2.0 0.00 0.00 0.00 56 1018.9
20260510150016 74 287 1.0 2.0 0.00 0.00 0.00 59 1019.2
20260510145512 74 9 3.0 5.0 0.00 0.00 0.00 59 1019.1
20260510145009 74 125 0.0 2.0 0.00 0.00 0.00 60 1019.0
20260510144505 74 123 0.0 2.0 0.00 0.00 0.00 59 1018.9
20260510144002 74 299 4.0 5.0 0.00 0.00 0.00 58 1018.9
20260510143457 73 305 3.0 3.0 0.00 0.00 0.00 59 1019.1
20260510142954 72 66 0.0 2.0 0.00 0.00 0.00 62 1019.0
20260510142450 71 121 1.0 2.0 0.00 0.00 0.00 64 1019.0
20260510141947 72 125 0.0 1.0 0.00 0.00 0.00 64 1018.9
20260510141444 72 337 1.0 2.0 0.00 0.00 0.00 62 1019.0
20260510140941 71 13 2.0 2.0 0.00 0.00 0.00 63 1019.1
20260510140437 72 90 2.0 2.0 0.00 0.00 0.00 64 1019.0
20260510135936 71 128 0.0 3.0 0.00 0.00 0.00 67 1019.0
20260510135432 71 280 2.0 3.0 0.00 0.00 0.00 64 1018.8
20260510134930 71 57 0.0 1.0 0.00 0.00 0.00 65 1018.7
20260510134426 70 124 0.0 3.0 0.00 0.00 0.00 66 1018.9
20260510133923 71 163 1.0 1.0 0.00 0.00 0.00 66 1019.0
20260510133419 70 113 0.0 0.0 0.00 0.00 0.00 69 1018.8
20260510132914 69 144 0.0 1.0 0.00 0.00 0.00 70 1018.6
20260510132413 68 223 2.0 3.0 0.00 0.00 0.00 70 1018.6
20260510131909 68 140 1.0 1.0 0.00 0.00 0.00 70 1018.4
20260510131407 68 6 2.0 2.0 0.00 0.00 0.00 73 1018.4
20260510130903 66 104 0.0 0.0 0.00 0.00 0.00 76 1018.5
20260510130401 65 121 0.0 0.0 0.00 0.00 0.00 80 1018.4
20260510125857 64 155 1.0 1.0 0.00 0.00 0.00 80 1018.3
20260510125353 63 119 0.0 0.0 0.00 0.00 0.00 88 1018.0
20260510124850 62 121 0.0 0.0 0.00 0.00 0.00 89 1018.1
20260510124347 62 121 0.0 0.0 0.00 0.00 0.00 89 1018.0
20260510123843 61 122 0.0 0.0 0.00 0.00 0.00 89 1018.0
20260510123338 61 122 0.0 0.0 0.00 0.00 0.00 91 1017.8
20260510122835 60 122 0.0 0.0 0.00 0.00 0.00 90 1017.7
20260510122330 60 123 0.0 0.0 0.00 0.00 0.00 90 1017.5
20260510121827 60 123 0.0 0.0 0.00 0.00 0.00 91 1017.3
20260510121325 60 117 0.0 0.0 0.00 0.00 0.00 90 1017.3
20260510120822 60 111 0.0 0.0 0.00 0.00 0.00 90 1017.1
20260510120319 60 122 0.0 0.0 0.00 0.00 0.00 91 1017.0
20260510115814 60 125 0.0 0.0 0.00 0.00 0.00 90 1017.0
20260510115312 60 119 0.0 0.0 0.00 0.00 0.00 89 1016.8
20260510114807 59 131 0.0 0.0 0.00 0.00 0.00 89 1017.0
20260510114305 59 135 0.0 0.0 0.00 0.00 0.00 91 1016.8
20260510113800 59 127 0.0 0.0 0.00 0.00 0.00 91 1016.7
20260510113257 59 125 0.0 0.0 0.00 0.00 0.00 91 1016.7
20260510112753 59 125 0.0 0.0 0.00 0.00 0.00 91 1016.5
20260510112250 59 125 0.0 0.0 0.00 0.00 0.00 90 1016.7
20260510111746 59 124 0.0 0.0 0.00 0.00 0.00 90 1016.6
20260510111243 59 124 0.0 0.0 0.00 0.00 0.00 90 1016.7
20260510110742 59 126 0.0 0.0 0.00 0.00 0.00 89 1016.5
20260510110241 59 121 0.0 1.0 0.00 0.00 0.00 89 1016.7
20260510105740 59 125 0.0 0.0 0.00 0.00 0.00 88 1016.7
20260510105235 59 127 0.0 0.0 0.00 0.00 0.00 88 1016.6
20260510104732 59 130 0.0 0.0 0.00 0.00 0.00 88 1016.6
20260510104230 59 120 0.0 0.0 0.00 0.00 0.00 87 1016.7
20260510103726 59 128 0.0 1.0 0.00 0.00 0.00 87 1016.5
20260510103223 60 122 0.0 0.0 0.00 0.00 0.00 86 1016.3
20260510102723 60 105 0.0 1.0 0.00 0.00 0.00 85 1016.3
20260510102219 60 123 0.0 0.0 0.00 0.00 0.00 83 1016.2
20260510101717 61 125 0.0 0.0 0.00 0.00 0.00 80 1016.1
20260510101215 62 127 0.0 0.0 0.00 0.00 0.00 79 1015.9
20260510100710 62 127 0.0 0.0 0.00 0.00 0.00 77 1015.8
20260510100209 62 186 0.0 1.0 0.00 0.00 0.00 75 1015.8
20260510095704 63 121 0.0 0.0 0.00 0.00 0.00 74 1015.9
20260510095159 63 131 0.0 0.0 0.00 0.00 0.00 73 1015.6
20260510094657 64 127 0.0 1.0 0.00 0.00 0.00 72 1015.9
20260510094154 63 322 2.0 3.0 0.00 0.00 0.00 71 1016.0
20260510093650 63 130 0.0 2.0 0.00 0.00 0.00 72 1015.8
20260510093147 62 162 0.0 5.0 0.00 0.00 0.00 73 1016.0
20260510092644 60 117 1.0 6.0 0.00 0.00 0.00 76 1016.0
20260510092139 57 357 1.0 5.0 0.00 0.00 0.00 89 1015.8
20260510091635 56 122 0.0 1.0 0.00 0.00 0.00 95 1015.5
20260510091131 56 125 0.0 2.0 0.00 0.00 0.00 96 1015.9
20260510090629 55 128 0.0 0.0 0.00 0.00 0.00 97 1015.8
20260510090125 55 123 0.0 0.0 0.00 0.00 0.00 96 1015.8
20260510085620 55 116 0.0 1.0 0.00 0.00 0.00 96 1015.8
20260510085116 55 122 0.0 0.0 0.00 0.00 0.00 95 1015.1
20260510084612 55 125 0.0 0.0 0.00 0.00 0.00 95 1015.2
20260510084109 55 135 0.0 0.0 0.00 0.00 0.00 94 1015.2
20260510083605 56 124 0.0 0.0 0.00 0.00 0.00 94 1015.3
20260510083101 56 133 0.0 0.0 0.00 0.00 0.00 93 1015.2
20260510082559 56 124 0.0 0.0 0.00 0.00 0.00 93 1015.1
20260510082054 56 124 0.0 0.0 0.00 0.00 0.00 93 1015.1
20260510081549 56 133 0.0 0.0 0.00 0.00 0.00 93 1015.1
20260510081045 56 136 0.0 1.0 0.00 0.00 0.00 94 1015.0
20260510080544 56 138 1.0 1.0 0.00 0.00 0.00 95 1015.1
20260510080042 55 126 1.0 1.0 0.00 0.00 0.00 95 1014.9
20260510075539 56 128 0.0 0.0 0.00 0.00 0.00 94 1014.8
20260510075035 56 119 0.0 1.0 0.00 0.00 0.00 94 1014.8
20260510074533 56 129 1.0 2.0 0.00 0.00 0.00 93 1014.7
20260510074028 56 125 0.0 0.0 0.00 0.00 0.00 93 1014.5
20260510073524 56 126 1.0 1.0 0.00 0.00 0.00 94 1014.5
20260510073022 56 123 0.0 1.0 0.00 0.00 0.00 94 1014.4
20260510072518 56 128 0.0 1.0 0.00 0.00 0.00 95 1014.5
20260510072014 55 154 0.0 0.0 0.00 0.00 0.00 96 1014.6
20260510071510 55 122 0.0 2.0 0.00 0.00 0.00 98 1014.6
20260510071009 54 199 1.0 2.0 0.00 0.00 0.00 99 1014.5
20260510070505 54 134 0.0 0.0 0.00 0.00 0.00 99 1014.6
20260510070002 54 128 0.0 1.0 0.00 0.00 0.00 99 1014.7
20260510065458 53 140 0.0 1.0 0.00 0.00 0.00 99 1014.5
20260510064954 53 122 0.0 0.0 0.00 0.00 0.00 99 1014.5
20260510064451 53 120 0.0 0.0 0.00 0.00 0.00 99 1014.4
20260510063948 53 123 0.0 0.0 0.00 0.00 0.00 99 1014.6
20260510063444 53 126 0.0 0.0 0.00 0.00 0.00 99 1014.3
20260510062942 53 123 0.0 0.0 0.00 0.00 0.00 99 1014.3
20260510062437 54 114 0.0 0.0 0.00 0.00 0.00 99 1014.3
20260510061932 54 118 0.0 0.0 0.00 0.00 0.00 99 1014.5
20260510061429 53 128 1.0 1.0 0.00 0.00 0.00 99 1014.6
20260510060925 53 122 0.0 0.0 0.00 0.00 0.00 98 1014.6
20260510060423 53 122 0.0 0.0 0.00 0.00 0.00 98 1014.5
20260510055919 54 122 0.0 0.0 0.00 0.00 0.00 98 1014.5
20260510055415 54 122 0.0 0.0 0.00 0.00 0.00 98 1014.7
20260510054913 54 121 0.0 0.0 0.00 0.00 0.00 98 1014.7
20260510054408 54 122 0.0 0.0 0.00 0.00 0.00 98 1014.6
20260510053903 54 122 0.0 0.0 0.00 0.00 0.00 98 1014.8
20260510053359 54 122 0.0 0.0 0.00 0.00 0.00 97 1014.9
20260510052855 54 122 0.0 0.0 0.00 0.00 0.00 97 1015.0
20260510052351 54 122 0.0 0.0 0.00 0.00 0.00 97 1014.9
20260510051848 54 118 0.0 0.0 0.00 0.00 0.00 97 1015.0
20260510051344 54 119 0.0 0.0 0.00 0.00 0.00 97 1014.9
20260510050841 54 118 0.0 0.0 0.00 0.00 0.00 97 1015.0
20260510050337 54 118 0.0 0.0 0.00 0.00 0.00 96 1014.8
20260510045834 54 119 0.0 0.0 0.00 0.00 0.00 96 1015.0
20260510045326 54 118 0.0 0.0 0.00 0.00 0.00 96 1015.0
20260510044823 54 118 0.0 0.0 0.00 0.00 0.00 96 1014.9
20260510044320 55 118 0.0 0.0 0.00 0.00 0.00 95 1015.2
20260510043816 55 121 0.0 0.0 0.00 0.00 0.00 95 1015.1
20260510043312 55 122 0.0 0.0 0.00 0.00 0.00 95 1015.0
20260510042810 55 122 0.0 0.0 0.00 0.00 0.00 94 1015.0
20260510042307 55 122 0.0 0.0 0.00 0.00 0.00 94 1014.9
20260510041803 55 118 0.0 0.0 0.00 0.00 0.00 94 1014.8
20260510041300 55 118 0.0 0.0 0.00 0.00 0.00 94 1015.0
20260510040757 55 118 0.0 0.0 0.00 0.00 0.00 94 1015.0
20260510040254 55 118 0.0 0.0 0.00 0.00 0.00 93 1014.9
20260510035749 55 118 0.0 0.0 0.00 0.00 0.00 93 1014.8
20260510035245 55 118 0.0 0.0 0.00 0.00 0.00 92 1014.9
20260510034741 55 118 0.0 0.0 0.00 0.00 0.00 92 1014.9
20260510034239 55 118 0.0 0.0 0.00 0.00 0.00 92 1015.0
20260510033735 55 118 0.0 0.0 0.00 0.00 0.00 91 1014.7
20260510033233 56 118 0.0 0.0 0.00 0.00 0.00 91 1015.1
20260510032729 56 118 0.0 0.0 0.00 0.00 0.00 91 1014.9
20260510032225 56 118 0.0 0.0 0.00 0.00 0.00 91 1015.0
20260510031720 56 121 0.0 0.0 0.00 0.00 0.00 90 1015.0
20260510031216 56 121 0.0 0.0 0.00 0.00 0.00 90 1015.0
20260510030715 57 121 0.0 0.0 0.00 0.00 0.00 89 1014.9
20260510030213 57 122 0.0 0.0 0.00 0.00 0.00 88 1014.8
20260510025711 57 121 0.0 0.0 0.00 0.00 0.00 88 1014.8
20260510025208 57 122 0.0 0.0 0.00 0.00 0.00 87 1014.6
20260510024705 57 122 0.0 0.0 0.00 0.00 0.00 86 1014.7
20260510024201 57 122 0.0 0.0 0.00 0.00 0.00 86 1014.6
20260510023657 58 122 0.0 0.0 0.00 0.00 0.00 86 1014.7
20260510023154 58 122 0.0 0.0 0.00 0.00 0.00 85 1014.5
20260510022649 58 121 0.0 0.0 0.00 0.00 0.00 84 1014.6
20260510022144 59 122 0.0 0.0 0.00 0.00 0.00 83 1014.5
20260510021640 59 122 0.0 0.0 0.00 0.00 0.00 82 1014.3
20260510021137 59 121 0.0 0.0 0.00 0.00 0.00 82 1014.3
20260510020632 59 121 0.0 0.0 0.00 0.00 0.00 81 1014.2
20260510020127 60 122 0.0 0.0 0.00 0.00 0.00 80 1014.0
20260510015624 60 122 0.0 0.0 0.00 0.00 0.00 80 1014.1
20260510015120 60 123 0.0 0.0 0.00 0.00 0.00 79 1013.9
20260510014616 61 123 0.0 0.0 0.00 0.00 0.00 78 1013.8
20260510014113 61 123 0.0 0.0 0.00 0.00 0.00 77 1013.7
20260510013608 62 123 0.0 0.0 0.00 0.00 0.00 75 1013.6
20260510013103 62 123 0.0 0.0 0.00 0.00 0.00 73 1013.5
20260510012557 63 123 0.0 0.0 0.00 0.00 0.00 73 1013.5
20260510012054 64 121 0.0 0.0 0.00 0.00 0.00 70 1013.6
20260510011554 65 132 0.0 0.0 0.00 0.00 0.00 67 1013.2
20260510011050 66 133 0.0 0.0 0.00 0.00 0.00 64 1013.4
20260510010547 67 133 0.0 0.0 0.00 0.00 0.00 62 1013.3
20260510010044 68 133 0.0 0.0 0.00 0.00 0.00 59 1013.1
20260510005539 69 133 0.0 0.0 0.00 0.00 0.00 58 1013.1
20260510005037 70 133 0.0 0.0 0.00 0.00 0.00 55 1013.2
20260510004535 71 127 0.0 1.0 0.00 0.00 0.00 53 1012.9
20260510004033 72 132 0.0 0.0 0.00 0.00 0.00 51 1012.9
20260510003529 72 113 0.0 1.0 0.00 0.00 0.00 52 1012.7
20260510003024 73 189 1.0 1.0 0.00 0.00 0.00 49 1012.5
20260510002520 73 146 0.0 3.0 0.00 0.00 0.00 50 1012.5
20260510002017 74 146 1.0 3.0 0.00 0.00 0.00 49 1012.4
20260510001515 74 173 0.0 1.0 0.00 0.00 0.00 48 1012.5
20260510001013 75 170 0.0 2.0 0.00 0.00 0.00 47 1012.3
20260510000513 76 141 0.0 5.0 0.00 0.00 0.00 47 1012.1
20260510000010 76 175 1.0 3.0 0.00 0.00 0.00 46 1012.3
20260509235507 76 132 0.0 2.0 0.00 0.00 0.00 46 1012.0
20260509235003 76 245 2.0 5.0 0.00 0.00 0.00 45 1012.3
20260509234500 77 142 1.0 3.0 0.00 0.00 0.00 46 1012.0
20260509233958 77 139 2.0 3.0 0.00 0.00 0.00 46 1012.0
20260509233454 78 127 2.0 3.0 0.00 0.00 0.00 45 1012.0
20260509232950 78 154 0.0 3.0 0.00 0.00 0.00 45 1012.0
20260509232449 78 291 3.0 8.0 0.00 0.00 0.00 45 1011.9
20260509231944 78 156 1.0 6.0 0.00 0.00 0.00 45 1012.0
20260509231441 79 179 1.0 2.0 0.00 0.00 0.00 44 1011.9
20260509230939 79 265 1.0 2.0 0.00 0.00 0.00 44 1011.7
20260509230436 78 161 0.0 1.0 0.00 0.00 0.00 44 1011.9
20260509225931 78 277 4.0 6.0 0.00 0.00 0.00 45 1011.8
20260509225428 78 179 4.0 6.0 0.00 0.00 0.00 44 1011.8
20260509224925 79 120 2.0 7.0 0.00 0.00 0.00 45 1011.8
20260509224420 79 170 1.0 5.0 0.00 0.00 0.00 43 1012.1
20260509223918 80 207 5.0 7.0 0.00 0.00 0.00 44 1011.8
20260509223414 80 311 2.0 6.0 0.00 0.00 0.00 43 1011.8
20260509222911 79 292 2.0 5.0 0.00 0.00 0.00 43 1011.8
20260509222406 79 290 6.0 8.0 0.00 0.00 0.00 42 1011.8
20260509221902 80 133 0.0 6.0 0.00 0.00 0.00 44 1011.9
20260509221359 79 179 5.0 8.0 0.00 0.00 0.00 44 1011.9
20260509220855 80 353 2.0 3.0 0.00 0.00 0.00 43 1011.8
20260509220351 80 247 2.0 3.0 0.00 0.00 0.00 42 1011.8
20260509215847 80 38 2.0 3.0 0.00 0.00 0.00 40 1011.7
20260509215343 81 199 1.0 2.0 0.00 0.00 0.00 42 1012.0
20260509214841 80 148 0.0 3.0 0.00 0.00 0.00 44 1011.7
20260509214338 80 169 3.0 9.0 0.00 0.00 0.00 42 1011.8
20260509213835 80 267 2.0 3.0 0.00 0.00 0.00 41 1011.8
20260509213330 80 129 3.0 3.0 0.00 0.00 0.00 44 1011.8
20260509212828 80 193 1.0 3.0 0.00 0.00 0.00 44 1012.0
20260509212326 80 122 3.0 5.0 0.00 0.00 0.00 44 1011.9
20260509211821 80 45 1.0 5.0 0.00 0.00 0.00 41 1011.9
20260509211317 80 173 1.0 5.0 0.00 0.00 0.00 44 1012.0
20260509210814 80 218 1.0 6.0 0.00 0.00 0.00 42 1012.0
20260509210312 79 168 2.0 5.0 0.00 0.00 0.00 40 1011.9
20260509205811 80 224 2.0 8.0 0.00 0.00 0.00 43 1011.8
20260509205307 79 248 2.0 6.0 0.00 0.00 0.00 41 1011.9
20260509204802 80 217 1.0 5.0 0.00 0.00 0.00 39 1011.9
20260509204259 80 137 1.0 7.0 0.00 0.00 0.00 42 1011.9
20260509203755 80 224 2.0 3.0 0.00 0.00 0.00 40 1012.0
20260509203253 80 188 3.0 5.0 0.00 0.00 0.00 43 1012.0
20260509202748 80 186 3.0 5.0 0.00 0.00 0.00 42 1012.1
20260509202244 80 134 0.0 3.0 0.00 0.00 0.00 42 1012.2
20260509201739 79 333 4.0 10.0 0.00 0.00 0.00 43 1012.1
20260509201236 80 144 1.0 1.0 0.00 0.00 0.00 45 1012.2
20260509200732 80 215 3.0 7.0 0.00 0.00 0.00 43 1012.3
20260509200227 79 162 1.0 5.0 0.00 0.00 0.00 48 1012.3
20260509195724 79 131 0.0 2.0 0.00 0.00 0.00 45 1012.4
20260509195218 79 322 2.0 8.0 0.00 0.00 0.00 43 1012.4